This demonstration page uses our WeatherBlox Daily Observations layout. Learn more.

39.92423, -83.80882

Hourly Observations for May 9, 2019

Temp ( °F °C ) Dew Point ( °F °C ) Humidity (%) Winds ( mph kmh ) Pressure ( in mb ) Visibility ( mi km ) Precip ( " mm )
12:56 am 00:56 Clear 68 20 58 14.4 70 70 SE 12 19 29.93 1013 10 16.0934 0 0
1:56 am 01:56 Clear 66 18.9 58 14.4 75 75 SSE 10 17 29.92 1013 10 16.0934 0 0
2:56 am 02:56 Clear 66 18.9 58 14.4 75 75 SSE 13 20 29.9 1013 10 16.0934 0 0
3:56 am 03:56 Clear 66 18.9 58 14.4 75 75 SSE 10 17 29.89 1012 10 16.0934 0 0
4:56 am 04:56 Clear 67 19.4 59 15 76 76 S 10 17 29.87 1012 10 16.0934 0 0
5:56 am 05:56 Clear 69 20.6 60 15.6 73 73 S 10 17 29.86 1011 10 16.0934 0 0
6:56 am 06:56 Sunny 69 20.6 60 15.6 73 73 S 8 13 29.86 1011 10 16.0934 0 0
7:56 am 07:56 Sunny 69 20.6 61 16.1 76 76 S 12 19 29.86 1011 10 16.0934 0 0
8:56 am 08:56 Sunny 71 21.7 61 16.1 71 71 S 14 22 29.85 1011 10 16.0934 0 0
9:56 am 09:56 Mostly Cloudy with Rain 71 21.7 63 17.2 76 76 SSW 21 33 29.85 1011 7 11.26538 0 0.0254
10:56 am 10:56 Cloudy 71 21.7 64 17.8 79 79 SSW 18 30 29.83 1010 10 16.0934 0 0.0254
11:26 am 11:26 Cloudy with Light Rain 68 20 64 18 88 88 S 15 24 29.82 1010 6 9.65604 0.02 0.508
11:56 am 11:56 Cloudy with Light Rain 70 21.1 66 18.9 87 87 S 16 26 29.84 1010 10 16.0934 0.02 0.508
12:56 pm 12:56 Cloudy with Heavy Rain 71 21.7 66 18.9 84 84 SW 14 22 29.86 1011 8 12.87472 0.01 0.254
1:56 pm 13:56 Cloudy with Light Rain 72 22.2 68 20 87 87 SSW 15 24 29.85 1011 5 8.0467 0.06 1.524
2:56 pm 14:56 Cloudy 73 22.8 67 19.4 81 81 SSW 14 22 29.85 1011 10 16.0934 0 0.0254
3:56 pm 15:56 Mostly Cloudy 73 22.8 66 18.9 79 79 SSW 12 19 29.85 1011 10 16.0934 0 0
4:53 pm 16:53 Cloudy with Rain 72 22 66 19 83 83 SW 10 17 29.81 1010 9 14.48406 0 0.0254
4:56 pm 16:56 Cloudy with Heavy Rain 71 21.7 67 19.4 87 87 SW 13 20 29.84 1011 8 12.87472 0.01 0.254
5:13 pm 17:13 Cloudy with Nearby Thunderstorms 66 19 66 19 100 100 SW 12 19 29.84 1010 2.5 4.02335 0.04 1.016
5:20 pm 17:20 Cloudy with Nearby Thunderstorms 66 19 66 19 100 100 SW 16 26 29.84 1010 6 9.65604 0.06 1.524
5:24 pm 17:24 Cloudy with Nearby Thunderstorms 66 19 66 19 100 100 SW 14 22 29.85 1011 10 16.0934 0.06 1.524
5:30 pm 17:30 Cloudy 66 19 66 19 100 100 SSW 12 19 29.85 1011 10 16.0934 0.08 2.032
5:39 pm 17:39 Cloudy 68 20 66 19 94 94 SSW 12 19 29.84 1011 10 16.0934 0.09 2.286
5:56 pm 17:56 Cloudy 68 20 66 18.9 93 93 SSW 13 20 29.85 1011 10 16.0934 0.12 3.048
6:56 pm 18:56 Cloudy with Light Rain 67 19.4 66 18.9 97 97 SW 14 22 29.87 1012 10 16.0934 0.06 1.524
7:45 pm 19:45 Cloudy 66 19 66 19 100 100 SSW 12 19 29.86 1011 10 16.0934 0.02 0.508
7:56 pm 19:56 Cloudy 67 19.4 66 18.9 97 97 SW 9 15 29.88 1012 10 16.0934 0.02 0.508
8:22 pm 20:22 Cloudy 66 19 66 19 100 100 SSW 9 15 29.87 1011 10 16.0934 0.01 0.254
8:43 pm 20:43 Cloudy 66 19 64 18 94 94 SSW 6 9 29.87 1011 10 16.0934 0.02 0.508
8:56 pm 20:56 Cloudy 66 18.9 65 18.3 96 96 S 8 13 29.87 1012 10 16.0934 0.02 0.508
9:56 pm 21:56 Cloudy 65 18.3 64 17.8 97 97 S 9 15 29.87 1012 10 16.0934 0 0
10:56 pm 22:56 Cloudy with Light Rain 65 18.3 64 17.8 97 97 S 8 13 29.88 1012 10 16.0934 0 0.0254
11:05 pm 23:05 Cloudy with Light Rain 64 18 64 18 100 100 S 8 13 29.88 1012 10 16.0934 0 0.0254
11:22 pm 23:22 Cloudy 64 18 63 17 94 94 S 9 15 29.87 1012 10 16.0934 0 0.0254
11:56 pm 23:56 Mostly Cloudy 64 17.8 63 17.2 96 96 S 8 13 29.89 1012 10 16.0934 0 0.0254

Powered by AerisWeather